This demonstration page uses our WeatherBlox Daily Observations layout. Learn more.

Left ArrowRight Arrow

Hourly Observations for November 18, 2020

Temp ( °F °C ) Dew Point ( °F °C ) Humidity (%) Winds ( mph kmh ) Pressure ( in mb ) Visibility ( mi km ) Precip ( " mm )
12:51 am 00:51 Clear 63 17.2 27 -2.8 26 26 ESE 13 20 30.05 1018 10 16 0.00 0.00
1:51 am 01:51 Clear 62 16.7 27 -2.8 26 26 ESE 13 20 30.04 1017 10 16 0.00 0.00
2:51 am 02:51 Clear 61 16.1 27 -2.8 27 27 ESE 13 20 30.04 1017 10 16 0.00 0.00
3:51 am 03:51 Clear 60 15.6 27 -2.8 28 28 SE 12 19 30.03 1017 10 16 0.00 0.00
4:51 am 04:51 Clear 60 15.6 27 -2.8 28 28 ESE 15 24 30.03 1017 10 16 0.00 0.00
5:51 am 05:51 Clear 61 16.1 27 -2.8 27 27 ESE 12 19 30.06 1018 10 16 0.00 0.00
6:51 am 06:51 Clear 59 15 27 -2.8 29 29 SE 13 20 30.06 1018 10 16 0.00 0.00
7:51 am 07:51 Sunny 61 16.1 28 -2.2 29 29 ESE 15 24 30.09 1019 10 16 0.00 0.00
8:51 am 08:51 Sunny 64 17.8 29 -1.7 27 27 SE 15 24 30.10 1019 10 16 0.00 0.00
9:51 am 09:51 Sunny 70 21.1 29 -1.7 22 22 SE 15 24 30.09 1019 10 16 0.00 0.00
10:51 am 10:51 Sunny 75 23.9 29 -1.7 18 18 ESE 14 22 30.07 1018 10 16 0.00 0.00
11:51 am 11:51 Sunny 78 25.6 29 -1.7 16 16 SE 8 13 30.03 1017 10 16 0.00 0.00
12:51 pm 12:51 Sunny 81 27.2 30 -1.1 16 16 ESE 5 7 29.99 1016 10 16 0.00 0.00
1:51 pm 13:51 Sunny 83 28.3 30 -1.1 15 15 Calm 29.96 1015 10 16 0.00 0.00
2:51 pm 14:51 Sunny 84 28.9 31 -0.6 15 15 Calm 29.94 1014 10 16 0.00 0.00
3:51 pm 15:51 Sunny 84 28.9 32 0 15 15 W 5 7 29.93 1014 10 16 0.00 0.00
4:51 pm 16:51 Sunny 81 27.2 31 -0.6 16 16 W 7 11 29.94 1014 10 16 0.00 0.00
5:51 pm 17:51 Clear 72 22.2 30 -1.1 21 21 NNW 7 11 29.96 1015 10 16 0.00 0.00
6:51 pm 18:51 Clear 69 20.6 30 -1.1 23 23 N 6 9 29.98 1015 10 16 0.00 0.00
7:51 pm 19:51 Clear 67 19.4 30 -1.1 25 25 ESE 5 7 30.00 1016 10 16 0.00 0.00
8:51 pm 20:51 Clear 64 17.8 30 -1.1 28 28 E 6 9 30.01 1016 10 16 0.00 0.00
9:51 pm 21:51 Clear 63 17.2 31 -0.6 30 30 SE 7 11 30.01 1016 10 16 0.00 0.00
10:51 pm 22:51 Clear 59 15 31 -0.6 35 35 E 6 9 30.01 1016 10 16 0.00 0.00
11:51 pm 23:51 Clear 58 14.4 32 0 38 38 SE 7 11 30.00 1016 10 16 0.00 0.00

Powered by AerisWeather